STARLINK-3139 (49425 NORAD) Tracking and Keplerian Element Data

This shows tracking and keplerian element data for the satellite.

Feedback or suggestion? Click here.




ElementValue
Catalog49425
NameSTARLINK-3139
Epoch Orbit367
Epoch Day15.91668981
Epoch Year2022
RAAN185.3585
Inclination53.2173
Eccentricity0.000151
Argument of Perigee55.3957
Mean Anonmoly89.2561
Mean Motion15.25470545
Decay Rate-0.00651935
L11 49425U 21104T 22015.91668981 -.00651935 00000+0 -27376-1 0 9996
L22 49425 53.2173 185.3585 0001510 55.3957 89.2561 15.25470545 3678

Live tracking and technical data element details for STARLINK-3139 (NORAD 49425). STARLINK-3139 can be tracked NOW for your location showing map with azimuth and elevation plus other details from your city location.

Track the satellite on the map from your city or location and see movement details for azimuth, elevation, latitude, longitude, range, height, and movement on the map or in text.







IsCatalogInMostPopularTable: catalog: 49425, numindb: 5
Update: records affected: 1



GetName: 49425 STARLINK-3139

Hit Count: updated at: Thu, 20 Jan 2022 17:32:53 GMT